MNE101 EGKK-EBOS

Flight info

Callsign MNE101
Flight time 0h 29m
Altitude 19000
Route MIMFO Y312 DVR L9 KONAN UL607 KOK
Aircraft C25C/M-SDE2E3FGHRWXY/LB1

Departure

Time 2026-05-04 13:44
Airport London Gatwick Airport (EGKK)

Arrival

Time 2026-05-04 14:13
Airport Ostend-Bruges International Airport (EBOS)
Time Latitude Longitude Altitude Speed Heading
2026-05-04 13:10 51.15535 -0.19591 197 ft 0 kts 77°
2026-05-04 13:38 51.15538 -0.19565 200 ft 8 kts 91°
2026-05-04 13:38 51.15504 -0.19661 208 ft 21 kts 241°
2026-05-04 13:38 51.15316 -0.19639 197 ft 38 kts 168°
2026-05-04 13:38 51.15091 -0.19576 201 ft 18 kts 165°
2026-05-04 13:39 51.15075 -0.19570 200 ft 3 kts 168°
2026-05-04 13:39 51.15072 -0.19569 198 ft 0 kts 170°
2026-05-04 13:40 51.15068 -0.19568 198 ft 6 kts 170°
2026-05-04 13:41 51.14990 -0.19665 200 ft 23 kts 246°
2026-05-04 13:41 51.14957 -0.19974 196 ft 32 kts 260°
2026-05-04 13:41 51.14912 -0.20318 202 ft 32 kts 257°
2026-05-04 13:42 51.14819 -0.20995 196 ft 30 kts 257°
2026-05-04 13:42 51.14780 -0.21219 199 ft 9 kts 256°
2026-05-04 13:42 51.14728 -0.21370 201 ft 17 kts 208°
2026-05-04 13:42 51.14630 -0.21330 197 ft 5 kts 167°
2026-05-04 13:43 51.14607 -0.21321 195 ft 0 kts 168°
2026-05-04 13:43 51.14566 -0.21299 197 ft 12 kts 153°
2026-05-04 13:43 51.14511 -0.21167 203 ft 12 kts 77°
2026-05-04 13:44 51.14516 -0.21141 198 ft 0 kts 72°
2026-05-04 13:44 51.14541 -0.20967 205 ft 52 kts 76°
2026-05-04 13:44 51.14703 -0.19828 402 ft 146 kts 77°
2026-05-04 13:44 51.14949 -0.18039 1207 ft 182 kts 75°
2026-05-04 13:45 51.15284 -0.15932 1886 ft 212 kts 77°
2026-05-04 13:45 51.15645 -0.13300 2002 ft 274 kts 77°
2026-05-04 13:45 51.16031 -0.10387 2008 ft 266 kts 78°
2026-05-04 13:45 51.16387 -0.07661 2009 ft 236 kts 77°
2026-05-04 13:46 51.16732 -0.05090 1993 ft 243 kts 78°
2026-05-04 13:46 51.16911 -0.02380 1990 ft 249 kts 93°
2026-05-04 13:46 51.16803 0.00439 2186 ft 259 kts 90°
2026-05-04 13:46 51.16800 0.03304 2925 ft 265 kts 91°
2026-05-04 13:47 51.16717 0.06205 3654 ft 247 kts 91°
2026-05-04 13:47 51.16680 0.08945 4370 ft 251 kts 91°
2026-05-04 13:47 51.16611 0.11817 5103 ft 267 kts 91°
2026-05-04 13:47 51.16570 0.14792 5847 ft 276 kts 91°
2026-05-04 13:48 51.16631 0.17917 6622 ft 289 kts 88°
2026-05-04 13:48 51.16592 0.21064 7394 ft 283 kts 94°
2026-05-04 13:48 51.16554 0.24255 8392 ft 294 kts 90°
2026-05-04 13:48 51.16578 0.27537 9440 ft 292 kts 91°
2026-05-04 13:49 51.16588 0.30816 10446 ft 301 kts 90°
2026-05-04 13:49 51.16588 0.34158 11432 ft 301 kts 91°
2026-05-04 13:49 51.16596 0.37472 12448 ft 301 kts 91°
2026-05-04 13:49 51.16590 0.40855 13497 ft 309 kts 91°
2026-05-04 13:50 51.16617 0.44252 14460 ft 296 kts 90°
2026-05-04 13:50 51.16612 0.47466 15401 ft 285 kts 93°
2026-05-04 13:50 51.16584 0.50577 16364 ft 277 kts 92°
2026-05-04 13:50 51.16593 0.53676 16966 ft 279 kts 92°
2026-05-04 13:51 51.16577 0.56706 16964 ft 273 kts 93°
2026-05-04 13:51 51.16575 0.59761 16966 ft 285 kts 91°
2026-05-04 13:51 51.16587 0.62967 16967 ft 294 kts 92°
2026-05-04 13:51 51.16583 0.66262 16970 ft 300 kts 92°
2026-05-04 13:52 51.16565 0.73090 16979 ft 322 kts 92°
2026-05-04 13:52 51.16557 0.76725 16990 ft 332 kts 92°
2026-05-04 13:52 51.16550 0.80436 16990 ft 339 kts 92°
2026-05-04 13:53 51.16536 0.84214 16998 ft 343 kts 92°
2026-05-04 13:53 51.16524 0.88150 17018 ft 369 kts 92°
2026-05-04 13:53 51.16508 0.92243 17016 ft 380 kts 92°
2026-05-04 13:54 51.16476 1.00643 17023 ft 375 kts 92°
2026-05-04 13:54 51.16458 1.04782 17022 ft 372 kts 92°
2026-05-04 13:54 51.16412 1.13181 17019 ft 382 kts 92°
2026-05-04 13:55 51.16388 1.17423 17020 ft 382 kts 92°
2026-05-04 13:55 51.16332 1.25907 17018 ft 382 kts 92°
2026-05-04 13:55 51.16306 1.30082 17016 ft 383 kts 92°
2026-05-04 13:56 51.16274 1.34380 17011 ft 383 kts 92°
2026-05-04 13:56 51.16072 1.38549 17008 ft 381 kts 97°
2026-05-04 13:56 51.15773 1.46995 17004 ft 382 kts 95°
2026-05-04 13:57 51.15548 1.51213 17005 ft 382 kts 97°
2026-05-04 13:57 51.15316 1.55423 17005 ft 382 kts 96°
2026-05-04 13:58 51.14710 1.68086 17007 ft 382 kts 96°
2026-05-04 13:58 51.14286 1.76480 17008 ft 382 kts 96°
2026-05-04 13:58 51.14073 1.80708 17007 ft 382 kts 96°
2026-05-04 13:59 51.13859 1.84908 17006 ft 382 kts 96°
2026-05-04 13:59 51.13641 1.89145 17021 ft 382 kts 96°
2026-05-04 13:59 51.13205 1.97578 17014 ft 382 kts 96°
2026-05-04 14:00 51.12982 2.01797 17012 ft 382 kts 96°
2026-05-04 14:00 51.12539 2.10181 16918 ft 385 kts 96°
2026-05-04 14:00 51.12311 2.14437 16751 ft 384 kts 96°
2026-05-04 14:01 51.12085 2.18608 16570 ft 373 kts 96°
2026-05-04 14:01 51.11865 2.22686 16385 ft 365 kts 96°
2026-05-04 14:01 51.11411 2.30913 16022 ft 381 kts 96°
2026-05-04 14:02 51.11187 2.35022 15771 ft 367 kts 96°
2026-05-04 14:02 51.10965 2.39023 15437 ft 358 kts 96°
2026-05-04 14:02 51.10744 2.42930 15113 ft 352 kts 96°
2026-05-04 14:02 51.10527 2.46774 14792 ft 347 kts 96°
2026-05-04 14:03 51.10306 2.50668 14475 ft 362 kts 96°
2026-05-04 14:03 51.10085 2.54557 14164 ft 345 kts 96°
2026-05-04 14:03 51.09873 2.58252 13819 ft 334 kts 96°
2026-05-04 14:03 51.09662 2.61908 13260 ft 332 kts 96°
2026-05-04 14:04 51.10544 2.68992 11988 ft 336 kts 61°
2026-05-04 14:04 51.11770 2.72154 11356 ft 327 kts 57°
2026-05-04 14:04 51.12985 2.75130 10628 ft 317 kts 57°
2026-05-04 14:05 51.15064 2.81135 9109 ft 303 kts 61°
2026-05-04 14:05 51.16076 2.84055 8322 ft 298 kts 60°
2026-05-04 14:05 51.17077 2.86914 7567 ft 291 kts 60°
2026-05-04 14:06 51.18043 2.89651 6822 ft 276 kts 61°
2026-05-04 14:06 51.18953 2.92298 5981 ft 269 kts 61°
2026-05-04 14:06 51.19859 2.94883 5096 ft 265 kts 61°
2026-05-04 14:06 51.20737 2.97441 4212 ft 261 kts 61°
2026-05-04 14:07 51.21620 2.99959 3364 ft 258 kts 61°
2026-05-04 14:07 51.22242 3.02470 2983 ft 226 kts 78°
2026-05-04 14:07 51.22575 3.04944 2945 ft 227 kts 75°
2026-05-04 14:07 51.22993 3.07555 2586 ft 253 kts 75°
2026-05-04 14:08 51.23405 3.10294 2426 ft 252 kts 75°
2026-05-04 14:08 51.23822 3.12982 2400 ft 247 kts 75°
2026-05-04 14:08 51.23356 3.15133 2542 ft 222 kts 180°
2026-05-04 14:08 51.22860 3.13322 2177 ft 188 kts 276°
2026-05-04 14:09 51.23008 3.09547 2011 ft 156 kts 268°
2026-05-04 14:09 51.23014 3.07865 1864 ft 145 kts 268°
2026-05-04 14:10 51.22634 3.04864 1883 ft 134 kts 257°
2026-05-04 14:10 51.22409 3.03537 1853 ft 118 kts 256°
2026-05-04 14:10 51.22187 3.02293 1717 ft 116 kts 257°
2026-05-04 14:10 51.21992 3.01059 1556 ft 115 kts 258°
2026-05-04 14:11 51.21828 2.99826 1396 ft 116 kts 259°
2026-05-04 14:11 51.21466 2.97339 1081 ft 113 kts 257°
2026-05-04 14:11 51.21278 2.96104 904 ft 114 kts 259°
2026-05-04 14:12 51.21084 2.94901 749 ft 113 kts 259°
2026-05-04 14:12 51.20967 2.94069 665 ft 115 kts 262°
2026-05-04 14:12 51.20630 2.91565 377 ft 116 kts 258°
2026-05-04 14:13 51.20392 2.90354 223 ft 111 kts 260°
2026-05-04 14:13 51.20233 2.89145 96 ft 112 kts 261°
2026-05-04 14:13 51.20063 2.87986 15 ft 95 kts 261°
2026-05-04 14:13 51.19950 2.87220 19 ft 30 kts 256°